Regional Weather Roundup
Issued by NWS

Home | Current Version | Previous Version | Graphics & Text | Print | Product List | Glossary Off
Versions: 1 2 3 4 5 6 7 8 9 10 11 12 13 14 15 16 17 18 19 20 21 22 23 24 25 26 27 28 29 30 31 32 33 34 35 36 37 38 39 40 41 42 43 44 45 46 47 48 49 50

000
ASUS43 KDMX 271703
RWRIA

WEATHER ROUNDUP FOR IOWA
NATIONAL WEATHER SERVICE DES MOINES IA
1200 PM CDT FRI MAY 27 2016

NOTE: "FAIR" INDICATES FEW OR NO CLOUDS BELOW 12,000 FEET WITH NO
SIGNIFICANT WEATHER AND/OR OBSTRUCTIONS TO VISIBILITY.

* - THESE STATIONS ARE NOT NWS STATIONS...THUS NOT UNDER NWS
QUALITY CONTROL.  THEY ALSO DO NOT REPORT WEATHER SUCH
AS PRECIPITATION OR FOG.

IAZ001>003-012>014-020>022-031>034-043>046-271800-
   NORTHWEST IOWA

CITY           SKY/WX    TMP DP  RH WIND       PRES   REMARKS
CARROLL *      CLOUDY    68  63  83 SE7       29.76S
CHEROKEE *     PTSUNNY   70  63  77 SW3       29.75F
LE MARS *      CLOUDY    68  59  73 CALM      29.76S
ORANGE CITY *  SUNNY     70  57  64 CALM      29.75F
SHELDON *      PTSUNNY   68  59  73 VRB3      29.74F
SIOUX CITY     PTSUNNY   71  59  65 MISG      29.75F
SPENCER        PTSUNNY   69  58  67 E6        29.76F
STORM LAKE *     N/A     68  59  73 SE7       29.76F
$$

IAZ055>058-069>071-079>083-090>094-271800-
   SOUTHWEST IOWA

CITY           SKY/WX    TMP DP  RH WIND       PRES   REMARKS
ATLANTIC *     PTSUNNY   70  63  78 VRB5      29.76S
AUDUBON *      CLOUDY    72  64  78 E6        29.76F
CLARINDA *       N/A     68  63  83 MISG      29.79R
COUNCIL BLFS *   N/A     70  63  78 SE10      29.77R
CRESTON *      CLOUDY    68  63  83 SW8G14    29.76F
HARLAN  *      PTSUNNY   72  61  68 SE10      29.79R
LAMONI         CLOUDY    69  66  90 SW10      29.75R
RED OAK *      CLOUDY    68  63  83 S5        29.77R
SHENANDOAH *   CLOUDY    66  64  94 S5G12     29.78R FOG
$$

IAZ047>049-059>061-072>074-084-271800-
   CENTRAL IOWA

CITY           SKY/WX    TMP DP  RH WIND       PRES   REMARKS
AMES           LGT RAIN  64  63  96 N5        29.75F FOG
ANKENY *       DRIZZLE   64  64 100 CALM      29.75S
BOONE *        PTSUNNY   64  63  94 CALM      29.76S
CHARITON *     PTSUNNY   73  68  83 S10       29.74S
DES MOINES     LGT RAIN  66  63  90 CALM      29.75R FOG
GRINNELL*      CLOUDY    72  66  83 SE10      29.75F
KNOXVILLE *    PTSUNNY   72  68  88 S9G15     29.73S
MARSHALLTOWN   CLOUDY    67  65  93 SE8       29.75F
NEWTON *       CLOUDY    68  68 100 S7        29.74F FOG
PELLA *        MOSUNNY  N/A N/A N/A SE7       29.75
PERRY *        CLOUDY    66  64  94 NE3       29.76S
$$

IAZ004>006-015-016-023>025-035-036-271800-
   NORTH CENTRAL IOWA

CITY           SKY/WX    TMP DP  RH WIND       PRES   REMARKS
ALGONA *       PTSUNNY   66  61  82 SE13G20   29.78F
CLARION *      PTSUNNY   64  63  94 E7        29.78F FOG
ESTHERVILLE    CLOUDY    68  60  75 S9        29.77S
FORT DODGE *   CLOUDY    68  61  77 E10       29.77F
MASON CITY     LGT RAIN  63  62  97 E3        29.81S FOG
FOREST CITY *  LGT RAIN  61  61 100 S5        29.81R
WEBSTER CITY * PTSUNNY   64  63  94 CALM      29.76F
IOWA FALLS *   DRIZZLE   64  63  94 E3        29.78S
$$

IAZ007>011-017>019-026>030-037>042-050>054-066-271800-
   NORTHEAST IOWA

CITY           SKY/WX    TMP DP  RH WIND       PRES   REMARKS
CEDAR RAPIDS   CLOUDY    75  68  78 S9        29.77S
CHARLES CITY * CLOUDY    66  66 100 E9        29.79F FOG
CLINTON *      CLOUDY    75  68  78 S17G25    29.83S
DECORAH *      CLOUDY    70  64  83 SE8G16    29.79S
DUBUQUE        CLOUDY    71  66  84 SE14      29.83R
MONTICELLO *   CLOUDY    73  64  73 SE12G21   29.80S
OELWEIN *      CLOUDY    70  64  83 S13G20    29.79F
WATERLOO         N/A     69  62  78 SE8       29.76F
$$

IAZ064-065-067-068-078-271800-
   EAST CENTRAL IOWA

CITY           SKY/WX    TMP DP  RH WIND       PRES   REMARKS
DAVENPORT      CLOUDY    73  65  75 S23G29    29.81S
IOWA CITY      CLOUDY    73  66  78 S12G23    29.79R
MT. PLEASANT * CLOUDY    75  68  78 S14G22    29.78S
MUSCATINE *    CLOUDY    75  66  73 S21G29    29.79S
QUAD CITIES    CLOUDY    74  66  76 S13G23    29.81R
$$

IAZ062-063-075>077-085>089-095>099-271800-
   SOUTHEAST IOWA

CITY           SKY/WX    TMP DP  RH WIND       PRES   REMARKS
BURLINGTON     CLOUDY    72  67  84 S14G23    29.78F
FAIRFIELD *      N/A    N/A N/A N/A MISG        N/A
FORT MADISON * CLOUDY    72  66  83 S12       29.79F
KEOKUK *       CLOUDY    73  68  83 S15       29.77F
OSKALOOSA *    PTSUNNY   75  68  78 S16       29.75F
OTTUMWA        CLOUDY    76  67  73 S16       29.75S
WASHINGTON *   CLOUDY    77  77 100 S17G24    29.78F
$$

ABBREVIATIONS USED IN REMARKS
   TC - TEMPERATURES IN CELSIUS
  WCI - WIND CHILL INDEX
   HX - HEAT INDEX
  VSB - VISIBILITY
$$





USA.gov is the U.S. government's official web portal to all federal, state and local government web resources and services.